Temperature
11 11 11 11 11 12 12 12 12 12 12 12 13 12 13 13 13 13 13 13 13 13 13 13 14 14 14 14 14 14 14 14 14 14 14 14 14 14 14 14 14 14 14
11 11 11 11 11 11 11 12 12 12 12 12 12 12 12 12 13 13 13 13 13 13 13 13 13 13 13 14 14 14 14 14 14 14 14 14 14 14 14 14 14 14 14
10 10 10 11 11 11 11 11 11 12 12 12 12 12 12 12 12 12 12 13 13 13 13 13 13 13 13 13 14 14 14 14 14 14 14 14 14 14 14 14 14 14 14
10 10 10 10 10 11 11 11 11 11 11 11 11 12 12 12 12 12 12 12 13 13 13 13 13 13 13 13 13 13 14 14 14 14 14 14 14 14 14 14 14 14 14
10 10 10 10 10 10 10 11 11 11 11 11 11 11 11 12 12 12 12 12 12 12 12 13 12 12 13 13 13 13 13 13 13 13 14 14 13 13 13 14 14 14 14
10 10 10 10 10 10 10 10 11 11 11 11 11 11 11 11 12 12 12 12 12 12 12 12 12 12 12 13 13 13 13 13 13 13 13 13 13 13 13 13 13 13 13
9 9 9 10 10 10 10 10 10 10 10 11 11 11 11 11 11 11 12 12 12 12 12 12 12 12 12 12 12 12 12 12 13 13 13 13 13 12 13 13 13 13 13
9 9 9 9 9 9 10 10 9 10 10 10 10 11 11 11 11 11 11 11 11 11 11 12 12 12 12 12 12 12 12 12 12 12 12 12 12 12 12 12 13 13 13
9 9 9 9 9 9 9 9 9 9 10 10 10 10 10 11 11 11 11 11 11 11 11 11 11 11 12 12 12 12 12 12 12 12 12 12 12 12 12 12 12 12 12
8 8 8 8 8 9 9 9 9 9 9 9 10 10 10 10 10 10 10 11 11 11 11 11 11 11 11 11 11 11 11 11 11 12 11 11 11 11 11 11 11 12 12
8 8 8 8 8 8 8 8 8 8 9 9 9 9 9 10 10 10 10 10 10 10 10 10 11 11 11 11 11 11 11 11 11 11 11 11 11 11 11 11 11 11 11
8 8 7 7 7 7 7 8 8 8 8 8 8 9 9 9 9 9 9 9 9 10 10 10 10 10 10 10 10 10 10 10 11 11 11 11 10 10 10 10 10 10 11
7 7 7 7 7 7 7 7 7 7 7 8 8 8 8 8 8 8 9 9 9 9 9 9 10 10 10 10 10 10 10 10 10 10 10 10 10 10 10 10 10 10 10
7 7 7 7 7 6 7 7 7 7 7 7 7 7 7 7 8 8 8 8 8 8 9 9 9 9 9 9 9 9 9 9 9 10 10 10 10 10 10 10 9 9 9
7 7 6 6 6 6 6 6 6 6 6 6 7 7 7 7 7 7 7 7 7 8 8 8 8 8 9 9 9 9 9 9 9 9 9 9 9 9 9 9 9 9 9
7 6 6 6 6 6 6 6 6 6 6 6 6 6 6 6 6 6 6 7 7 7 7 7 7 8 8 8 8 8 8 8 8 8 9 9 9 9 9 9 9 9 8
6 6 6 6 6 6 6 6 6 6 5 5 5 5 5 5 5 5 6 6 6 6 6 7 7 7 7 7 7 7 8 8 8 8 8 8 8 8 8 8 8 8 8
6 6 6 6 5 5 5 5 5 5 5 5 5 5 5 5 5 5 5 5 5 6 6 6 6 7 7 7 7 7 7 7 7 7 7 7 7 8 8 8 8 8 8
6 6 6 5 5 5 5 5 5 5 5 4 4 4 4 4 4 4 4 4 5 5 5 5 5 6 6 6 6 6 6 6 6 6 7 7 7 7 7 7 7 7 7
5 5 5 5 5 5 5 4 4 4 4 4 4 4 4 4 4 4 4 4 4 4 4 5 5 5 5 5 5 6 6 6 6 6 6 6 6 6 6 6 6 6 6
5 5 5 4 4 4 4 4 4 4 4 4 3 3 3 3 3 3 3 3 4 4 4 4 4 4 4 4 4 5 5 5 5 5 5 5 5 5 5 5 6 6 6
5 4 4 4 4 4 4 4 4 3 3 3 3 3 3 3 3 3 3 3 3 3 3 3 3 3 3 3 3 3 3 3 4 4 4 4 4 4 4 5 5 5 5
4 4 4 4 4 4 3 3 3 3 3 3 3 2 2 2 2 2 2 2 2 2 2 2 2 2 2 2 2 2 2 2 2 3 3 3 3 3 3 4 4 4 4
4 4 4 3 3 3 3 3 3 3 2 2 2 2 2 2 1 1 1 1 1 1 1 2 1 1 1 1 1 1 1 0 0 1 2 2 2 2 3 3 3 3 3
4 4 3 3 3 2 2 2 2 2 2 1 1 1 1 1 1 1 1 1 1 1 1 1 1 1 1 0 0 0 0 0 -0 -0 -0 1 2 2 2 2 2 2 2
3 3 3 3 2 2 2 2 2 1 1 1 1 1 1 1 1 0 0 0 0 -0 -0 -0 -0 -0 -0 -0 -1 -1 -1 -1 -1 -1 -1 -1 -0 1 1 1 1 1 1
Wind_Speed
2 4 4 5 7 9 10 12 13 13 13 13 13 13 13 13 13 13 14 14 14 14 14 15 14 15 15 15 16 16 16 16 16 16 15 15 15 15 15 15 14 13 14
1 2 3 6 8 10 11 12 13 13 14 13 13 13 13 13 13 13 14 14 14 15 15 14 14 15 15 15 15 16 16 16 16 16 15 14 14 14 14 14 13 12 14
3 3 4 6 8 10 11 12 13 13 13 14 14 14 14 13 13 13 13 13 14 14 15 14 14 14 15 15 15 16 16 16 15 15 15 13 12 13 13 13 13 13 14
5 5 5 8 9 10 11 12 12 13 13 13 14 14 14 14 14 14 14 14 14 14 14 14 13 14 14 15 15 15 15 15 15 14 13 12 11 12 12 12 12 13 13
6 7 6 9 10 11 11 12 12 12 12 13 13 13 14 15 14 15 14 14 14 14 14 14 14 14 14 14 15 15 14 15 15 14 12 12 11 12 12 11 12 12 12
6 8 7 9 10 10 11 11 12 12 12 12 13 13 14 14 14 14 14 14 13 13 14 14 14 14 14 14 14 14 14 14 14 13 12 11 10 11 12 12 11 11 11
6 8 8 10 10 10 11 11 11 11 12 13 13 14 14 14 14 14 14 13 13 13 13 13 14 14 14 14 14 14 13 14 12 12 11 11 11 12 11 12 12 11 11
7 8 9 10 10 11 11 11 11 11 12 13 14 14 14 14 14 14 14 13 13 13 12 13 13 13 13 13 14 14 14 13 11 11 11 10 11 12 12 12 11 12 11
8 9 9 10 10 11 11 11 11 12 12 13 13 14 14 14 14 14 14 14 14 13 13 12 12 12 12 13 13 13 13 13 13 10 10 10 11 11 11 11 11 11 11
7 8 8 10 11 11 10 11 11 11 12 12 13 14 14 14 14 14 14 14 14 13 13 12 12 12 12 13 13 13 13 12 13 11 9 9 10 10 11 11 10 10 11
5 5 7 8 9 9 9 10 10 11 11 12 12 12 13 13 13 13 14 14 14 13 13 12 12 12 12 12 12 12 12 10 11 10 9 9 9 9 9 10 9 10 10
4 3 5 6 7 8 8 9 10 9 10 11 11 11 11 11 11 11 13 13 13 13 12 12 12 11 11 11 11 11 10 10 10 9 9 9 8 8 8 8 9 9 9
4 4 4 5 6 7 7 8 8 9 9 10 10 10 10 10 10 11 11 12 12 12 11 11 11 11 10 10 9 9 9 9 9 9 9 9 7 7 7 8 8 9 9
5 4 3 5 6 7 7 7 7 7 8 8 8 9 9 8 9 9 9 10 10 9 9 9 9 10 10 10 9 9 9 8 8 8 9 9 8 7 7 7 8 7 8
6 5 4 4 5 6 6 6 6 6 6 7 8 8 8 7 7 7 8 8 9 9 8 8 8 8 8 8 8 8 8 8 8 8 8 9 8 7 7 8 8 8 7
6 5 4 4 5 6 5 5 5 6 6 7 7 8 8 8 7 7 7 7 8 8 8 8 7 6 6 6 6 7 7 7 7 8 8 9 9 8 8 7 7 7 7
7 6 5 5 5 6 5 5 5 6 7 7 6 7 8 8 7 7 6 6 7 7 7 8 7 7 6 5 5 6 6 6 7 7 8 8 9 8 9 8 7 7 7
7 7 6 5 5 5 5 5 5 6 7 6 6 7 8 8 7 7 6 5 6 7 7 6 5 3 4 4 3 3 5 5 6 6 7 8 9 8 8 9 8 8 7
7 7 6 6 6 5 5 6 6 6 6 6 6 7 7 8 7 7 6 6 7 6 6 5 4 2 3 4 3 2 3 3 4 6 7 8 9 9 8 8 9 8 8
6 6 6 6 6 6 5 5 5 5 5 6 6 6 7 7 7 7 6 6 7 5 5 4 3 3 2 2 2 2 2 2 3 4 5 7 8 8 8 8 8 7 8
7 7 7 6 6 5 4 3 3 2 2 4 5 6 7 7 7 7 6 6 6 5 4 4 3 4 3 3 2 2 2 2 2 2 4 5 6 8 9 8 7 7 6
8 8 7 7 7 6 4 3 2 2 2 2 4 6 7 6 6 6 6 5 5 4 4 4 3 2 3 4 2 1 2 2 2 2 2 3 4 6 7 8 8 7 7
9 9 7 7 7 6 5 5 4 3 2 2 2 3 5 6 6 5 5 5 5 4 3 3 3 3 2 3 3 1 1 1 3 2 2 2 3 3 5 6 7 7 7
9 8 7 7 6 6 6 6 6 3 2 1 1 1 3 5 5 5 5 5 5 4 3 3 3 2 1 2 2 2 1 1 1 3 2 2 4 3 3 5 6 6 7
8 7 7 7 7 6 5 6 6 4 2 2 1 1 2 3 4 4 4 4 4 4 3 3 3 2 1 1 1 1 1 1 1 1 3 3 4 3 3 4 4 5 7
6 6 7 7 6 6 5 5 6 5 4 3 2 1 1 1 3 4 4 4 4 3 3 3 2 1 1 0 0 0 1 1 1 1 3 4 5 4 4 3 3 5 6
Wind_Direction
302 331 9 38 52 59 62 60 57 54 51 49 49 50 52 52 53 54 55 56 57 59 60 61 64 65 71 72 69 68 67 68 68 67 66 67 70 74 76 74 71 69 77
314 17 49 55 61 62 64 62 58 55 53 51 50 49 50 50 52 54 55 54 55 56 58 60 61 65 69 71 72 69 68 67 66 64 62 60 63 69 73 74 74 74 75
57 61 58 71 69 66 64 63 61 58 56 53 52 50 50 51 52 53 53 53 54 56 56 57 61 63 65 68 71 70 68 66 63 62 58 52 57 66 72 73 74 76 77
79 73 68 78 73 69 66 64 61 59 56 55 53 51 49 50 51 51 51 51 53 56 56 58 61 63 65 68 71 71 69 67 61 59 54 48 53 63 69 74 76 76 77
72 73 83 81 75 71 67 64 61 58 56 55 54 52 50 49 51 50 51 50 51 55 58 60 63 65 65 67 68 68 69 66 61 57 52 48 51 61 67 73 77 76 76
67 73 87 85 78 74 70 66 62 59 57 57 55 53 52 50 50 50 50 50 49 53 57 59 62 65 64 66 67 65 65 64 60 54 49 50 54 62 67 69 75 78 80
70 70 83 86 81 76 72 68 64 61 59 58 55 54 52 51 49 48 48 47 48 52 57 60 60 62 63 64 64 63 64 62 60 53 46 46 55 61 64 68 72 76 79
78 70 77 83 79 75 73 70 65 61 59 57 54 53 51 50 48 48 45 46 48 51 54 58 59 59 61 61 62 63 62 58 53 51 45 43 54 60 61 63 70 72 72
77 72 69 72 75 75 71 69 65 61 58 55 54 52 50 48 47 46 44 44 45 47 51 54 55 55 58 59 60 59 59 55 49 46 45 44 52 58 60 61 67 70 70
70 68 69 69 70 68 67 67 65 61 59 56 53 51 49 46 45 44 42 43 42 43 47 50 52 54 55 57 57 57 54 51 45 41 39 44 51 55 58 60 64 68 67
80 64 69 68 67 67 67 64 62 59 57 56 54 50 48 45 42 41 41 41 41 41 43 47 49 53 53 53 53 55 53 46 43 37 35 43 50 52 54 57 62 68 68
118 92 68 71 70 71 69 65 61 58 57 57 56 53 52 49 45 42 41 38 38 38 40 42 44 48 49 47 46 50 47 42 41 31 28 37 45 48 50 56 61 66 68
140 115 85 80 80 76 71 68 63 62 58 56 54 53 56 54 50 46 44 37 35 36 38 36 39 42 46 46 43 43 42 41 35 29 25 33 42 48 50 58 60 65 68
139 131 107 93 86 78 78 74 69 65 60 56 52 52 57 54 47 43 42 36 37 38 38 38 39 38 44 45 45 43 40 38 34 29 27 32 41 48 53 56 56 61 65
150 144 135 108 99 90 80 76 71 66 64 61 58 53 57 57 47 44 41 38 36 37 38 36 36 35 39 41 42 43 39 35 34 35 29 30 39 46 53 55 52 54 58
162 157 147 127 110 101 84 76 75 73 68 62 57 54 57 60 56 48 41 36 32 33 37 38 33 36 36 39 39 40 39 37 37 39 35 31 37 47 51 52 48 47 49
167 158 153 137 113 103 93 88 82 77 72 61 55 54 56 59 57 53 46 35 28 31 37 41 34 41 39 36 31 33 40 42 42 42 40 38 38 44 47 45 43 40 38
161 158 155 140 125 110 98 90 85 79 75 66 59 55 54 55 55 55 48 33 28 34 37 38 28 35 32 24 18 18 30 39 39 43 48 45 42 43 44 44 44 39 33
165 159 150 139 136 122 102 91 85 81 74 67 62 56 50 50 51 55 50 35 32 38 36 32 24 36 32 19 11 10 17 26 29 42 48 46 41 40 43 42 41 35 26
160 155 148 140 137 126 106 90 80 72 63 62 58 54 50 47 46 49 49 37 36 37 32 28 24 28 35 11 7 7 0 14 35 40 43 43 38 32 37 38 34 27 23
159 156 153 149 149 138 129 122 108 90 71 53 53 53 50 46 43 47 43 35 34 35 24 21 28 28 22 7 19 5 356 4 34 34 36 37 31 25 28 26 24 22 16
171 167 161 160 160 153 145 135 121 120 96 68 56 51 45 44 44 48 45 36 31 34 29 24 29 24 19 20 25 18 347 335 360 1 17 27 19 17 16 13 15 13 9
177 174 171 168 163 153 139 121 107 86 73 60 52 37 36 43 45 46 45 43 38 41 32 17 26 36 23 14 30 48 47 288 311 317 353 11 5 7 356 358 360 359 357
180 171 165 162 155 149 142 142 140 140 140 164 133 55 32 42 44 43 44 43 38 34 24 8 25 23 40 8 8 23 29 264 299 313 310 350 349 344 341 337 339 344 348
167 163 160 154 151 147 148 151 144 134 132 120 90 70 34 33 38 37 38 42 36 29 21 11 10 25 39 18 349 333 345 340 301 266 293 309 322 312 323 320 323 331 339
156 156 155 153 153 148 151 150 150 149 146 139 126 111 36 22 26 30 32 36 33 26 12 0 1 12 11 21 336 309 280 279 293 281 278 289 297 297 298 298 306 317 331
Height
1536 1536 1537 1537 1538 1538 1538 1538 1538 1537 1537 1537 1536 1536 1536 1536 1536 1536 1535 1535 1535 1535 1535 1535 1535 1536 1536 1536 1536 1537 1537 1537 1538 1538 1538 1538 1538 1539 1539 1539 1540 1540 1540
1535 1536 1537 1537 1538 1538 1538 1538 1538 1538 1537 1537 1537 1537 1537 1536 1536 1536 1536 1536 1536 1536 1536 1536 1536 1536 1537 1537 1537 1538 1538 1539 1539 1539 1539 1539 1540 1540 1540 1541 1541 1541 1542
1535 1536 1537 1538 1538 1538 1538 1538 1538 1538 1538 1537 1537 1537 1537 1537 1537 1537 1537 1537 1537 1536 1536 1537 1537 1537 1538 1538 1538 1539 1539 1540 1540 1540 1540 1540 1541 1541 1542 1542 1542 1543 1543
1535 1536 1537 1538 1538 1538 1538 1538 1538 1538 1538 1538 1538 1537 1537 1537 1537 1537 1537 1537 1537 1537 1537 1537 1538 1538 1538 1539 1539 1540 1540 1540 1541 1541 1541 1542 1542 1542 1543 1543 1543 1544 1544
1534 1535 1536 1537 1538 1538 1538 1538 1538 1538 1538 1538 1538 1538 1537 1537 1537 1537 1537 1537 1538 1538 1537 1538 1538 1539 1539 1540 1540 1540 1541 1541 1541 1542 1542 1542 1542 1543 1543 1543 1544 1544 1545
1534 1535 1536 1537 1537 1538 1538 1538 1538 1539 1538 1538 1538 1538 1538 1538 1538 1538 1537 1538 1538 1538 1538 1539 1539 1539 1540 1540 1541 1541 1541 1541 1542 1542 1542 1543 1543 1543 1543 1544 1544 1545 1545
1533 1534 1535 1536 1537 1538 1538 1538 1538 1538 1538 1538 1538 1538 1538 1538 1538 1538 1538 1538 1538 1539 1539 1539 1539 1540 1540 1540 1541 1541 1541 1542 1542 1542 1543 1543 1543 1543 1544 1544 1545 1545 1545
1533 1534 1535 1536 1536 1537 1537 1538 1538 1538 1538 1538 1538 1538 1538 1538 1538 1538 1538 1538 1538 1539 1539 1539 1539 1540 1540 1541 1541 1541 1542 1542 1542 1543 1543 1543 1544 1544 1544 1544 1545 1545 1545
1533 1534 1534 1535 1536 1537 1537 1537 1537 1537 1537 1537 1537 1537 1537 1537 1537 1537 1538 1538 1538 1539 1539 1539 1539 1540 1540 1540 1541 1541 1542 1542 1542 1542 1543 1543 1544 1544 1544 1544 1544 1545 1545
1532 1533 1534 1535 1535 1536 1536 1537 1537 1537 1537 1537 1537 1537 1537 1537 1537 1537 1537 1537 1538 1538 1538 1538 1539 1539 1540 1540 1540 1541 1542 1542 1542 1542 1543 1543 1544 1544 1544 1544 1544 1544 1545
1531 1532 1533 1534 1535 1535 1535 1536 1536 1536 1536 1536 1536 1536 1536 1536 1537 1536 1536 1537 1537 1537 1537 1538 1538 1538 1539 1539 1540 1540 1541 1541 1542 1542 1542 1543 1543 1543 1543 1543 1544 1544 1544
1529 1531 1532 1533 1534 1534 1535 1535 1535 1536 1536 1536 1536 1536 1536 1536 1536 1536 1536 1536 1536 1536 1536 1537 1537 1537 1538 1538 1539 1539 1540 1540 1541 1541 1541 1542 1542 1543 1543 1543 1543 1543 1544
1528 1529 1531 1532 1533 1533 1534 1534 1534 1535 1535 1535 1535 1535 1535 1535 1535 1535 1535 1535 1535 1535 1535 1535 1536 1536 1536 1537 1537 1538 1538 1539 1539 1540 1540 1541 1541 1542 1542 1542 1542 1543 1543
1526 1528 1530 1531 1532 1533 1533 1534 1534 1534 1534 1534 1534 1534 1534 1534 1534 1534 1534 1534 1534 1534 1534 1534 1534 1534 1535 1535 1536 1536 1537 1537 1538 1538 1539 1539 1539 1540 1540 1541 1541 1542 1542
1525 1527 1528 1530 1531 1532 1532 1533 1533 1533 1533 1533 1533 1533 1533 1533 1533 1533 1533 1533 1533 1533 1533 1533 1533 1533 1533 1534 1534 1535 1535 1536 1536 1536 1537 1537 1538 1538 1539 1539 1539 1540 1540
1523 1525 1526 1528 1529 1530 1531 1532 1532 1532 1532 1532 1532 1532 1532 1532 1532 1531 1532 1532 1532 1532 1531 1531 1531 1531 1532 1532 1532 1533 1533 1534 1534 1534 1535 1535 1536 1536 1537 1537 1537 1538 1538
1521 1523 1525 1526 1528 1529 1530 1530 1531 1531 1531 1531 1531 1531 1531 1531 1531 1531 1530 1530 1530 1530 1530 1530 1530 1529 1530 1530 1531 1531 1531 1531 1532 1532 1533 1533 1533 1534 1534 1535 1535 1536 1536
1519 1521 1523 1525 1526 1527 1528 1529 1530 1530 1530 1530 1530 1530 1530 1530 1530 1529 1529 1529 1529 1529 1528 1528 1528 1528 1528 1528 1528 1529 1529 1529 1530 1530 1530 1531 1531 1531 1532 1532 1533 1533 1534
1517 1519 1521 1522 1524 1525 1526 1527 1528 1529 1529 1529 1529 1529 1529 1529 1528 1528 1528 1527 1527 1527 1526 1526 1526 1525 1525 1526 1526 1526 1527 1527 1527 1528 1528 1528 1529 1529 1529 1530 1530 1531 1531
1515 1517 1518 1520 1522 1523 1524 1525 1526 1527 1527 1528 1528 1527 1527 1527 1527 1527 1526 1526 1526 1525 1525 1525 1524 1524 1524 1523 1524 1524 1524 1524 1525 1525 1525 1526 1526 1526 1527 1527 1527 1528 1528
1512 1514 1515 1517 1519 1520 1522 1522 1523 1524 1525 1526 1526 1526 1526 1526 1526 1525 1525 1525 1525 1524 1524 1523 1522 1522 1522 1521 1521 1521 1521 1522 1522 1522 1523 1523 1523 1524 1524 1524 1524 1525 1525
1508 1510 1512 1514 1516 1518 1519 1520 1522 1522 1523 1524 1524 1524 1524 1524 1524 1524 1524 1524 1523 1523 1522 1522 1521 1520 1520 1519 1519 1519 1518 1519 1519 1519 1520 1520 1520 1521 1521 1521 1521 1521 1522
1504 1506 1509 1511 1513 1515 1517 1518 1519 1520 1521 1522 1522 1522 1522 1523 1523 1522 1522 1522 1522 1521 1521 1520 1520 1519 1519 1519 1519 1519 1519 1517 1516 1516 1516 1517 1517 1517 1518 1518 1518 1518 1518
1500 1503 1506 1508 1511 1512 1514 1515 1516 1517 1518 1519 1520 1520 1521 1521 1521 1521 1520 1520 1520 1519 1519 1519 1519 1518 1517 1517 1517 1518 1518 1517 1516 1513 1513 1514 1514 1514 1514 1514 1514 1514 1514
1497 1500 1503 1505 1507 1509 1511 1513 1514 1515 1516 1517 1518 1518 1518 1519 1519 1519 1519 1518 1518 1517 1517 1517 1516 1516 1516 1515 1515 1515 1515 1515 1514 1513 1510 1510 1510 1510 1510 1510 1510 1510 1510
1494 1497 1500 1502 1504 1507 1508 1510 1512 1513 1514 1514 1515 1515 1516 1516 1516 1516 1516 1516 1515 1515 1515 1514 1514 1514 1513 1513 1513 1513 1512 1512 1511 1510 1508 1506 1505 1505 1506 1506 1507 1506 1506